Latest Weather Observations for Geelong Racecourse

IDV60901

Issued at 5:51 pm EST Sunday 19 April 2015 (issued every 10 minutes, with the page automatically refreshed every 10 minutes)

About weather observations | Map of Melbourne area stations | Latest observations for Melbourne area | Other Formats
Station Details ID: 087184 Name: GEELONG RACECOURSE Lat: -38.17 Lon: 144.38 Height: 12.9 m
Data from the previous 72 hours. | See also: Recent months at Geelong Racecourse
Date/Time
EST
Tmp

°C
App
Tmp
°C
Dew
Point
°C
Rel
Hum
%
Delta-T

°C
Wind Press
QNH
hPa
Press
MSL
hPa
Rain
since
9 am
mm
Dir
 
Spd
km/h
Gust
km/h
Spd
kts
Gust
kts
19/05:30pm 11.8 6.9 4.3 60 3.4 SSW 19 26 10 14 1032.2 1032.2 0.2
19/05:00pm 12.4 6.7 4.9 60 3.4 SSW 24 35 13 19 1031.9 1031.9 0.2
19/04:30pm 12.6 7.1 3.8 55 4.0 S 22 32 12 17 1031.5 1031.5 0.2
19/04:02pm 13.1 6.5 4.3 55 4.0 S 28 50 15 27 1031.2 1031.2 0.2
19/04:00pm 13.4 7.1 4.0 53 4.2 S 26 43 14 23 1031.1 1031.1 0.2
19/03:30pm 13.7 7.8 4.0 52 4.4 S 24 35 13 19 1030.8 1030.8 0.2
19/03:00pm 12.7 5.8 4.4 57 3.7 SSW 30 39 16 21 1030.7 1030.7 0.2
19/02:30pm 14.8 8.6 4.5 50 4.8 SSW 26 39 14 21 1030.2 1030.2 0.2
19/02:00pm 12.6 4.8 4.8 59 3.5 SSW 35 48 19 26 1030.0 1030.0 0.2
19/01:30pm 14.2 6.7 3.4 48 4.9 SSW 32 48 17 26 1029.7 1029.7 0.2
19/01:00pm 13.7 6.6 3.8 51 4.5 SSW 30 43 16 23 1029.5 1029.5 0.2
19/12:30pm 13.0 7.6 6.4 64 3.1 SSE 24 35 13 19 1029.4 1029.4 0.2
19/12:00pm 13.6 6.0 3.9 52 4.4 S 33 44 18 24 1029.3 1029.3 0.2
19/11:30am 13.8 6.6 5.2 56 4.0 SSW 32 43 17 23 1029.0 1029.0 0.2
19/11:18am 13.6 6.5 5.5 58 3.8 SSW 32 52 17 28 1028.9 1028.9 0.2
19/11:00am 13.7 6.4 4.3 53 4.3 SSW 32 43 17 23 1028.5 1028.5 0.2
19/10:30am 13.1 6.9 6.0 62 3.4 SSW 28 39 15 21 1028.2 1028.2 0.2
19/10:00am 11.6 5.3 5.7 67 2.7 SSW 28 37 15 20 1028.0 1028.0 0.2
19/09:30am 10.6 7.1 7.3 80 1.6 SSW 15 20 8 11 1027.6 1027.6 0.2
19/09:00am 9.2 7.0 8.0 92 0.6 WSW 9 13 5 7 1027.2 1027.2 5.4
19/08:30am 8.6 5.9 7.4 92 0.6 WSW 11 17 6 9 1026.6 1026.6 4.4
19/08:00am 8.3 4.4 7.1 92 0.6 W 17 24 9 13 1026.1 1026.1 2.0
19/07:30am 8.7 5.7 7.5 92 0.6 SW 13 19 7 10 1025.2 1025.2 1.8
19/07:00am 8.2 5.4 7.1 93 0.5 W 11 15 6 8 1024.1 1024.1 1.6
19/06:30am 8.5 5.0 7.3 92 0.6 SSW 15 22 8 12 1024.0 1024.0 1.4
19/06:00am 8.6 4.4 7.4 92 0.6 SW 19 28 10 15 1023.2 1023.2 1.2
19/05:30am 8.3 3.8 7.1 92 0.6 SW 20 39 11 21 1022.8 1022.8 1.0
19/05:00am 8.4 5.6 7.0 91 0.6 W 11 17 6 9 1021.8 1021.8 0.6
19/04:30am 8.5 5.8 7.3 92 0.6 W 11 17 6 9 1021.3 1021.3 0.6
19/04:00am 8.9 5.7 6.7 86 1.0 WSW 13 17 7 9 1021.0 1021.0 0.4
19/03:30am 8.9 6.3 6.2 83 1.2 W 9 15 5 8 1020.2 1020.2 0.4
19/03:00am 9.2 6.3 6.5 83 1.2 W 11 17 6 9 1020.0 1020.0 0.4
19/02:30am 9.8 6.2 6.9 82 1.4 W 15 20 8 11 1019.8 1019.8 0.4
19/02:00am 9.3 6.9 7.1 86 1.0 W 9 13 5 7 1019.7 1019.7 0.4
19/01:30am 9.6 6.9 7.5 87 1.0 W 11 15 6 8 1019.4 1019.4 0.4
19/01:00am 9.7 6.8 8.3 91 0.7 W 13 17 7 9 1019.1 1019.1 0.4
19/12:30am 9.9 7.5 8.8 93 0.5 W 11 19 6 10 1018.7 1018.7 0.4
19/12:00am 10.1 8.2 9.0 93 0.5 WNW 9 15 5 8 1018.5 1018.5 0.4
 
Date/Time
EST
Tmp

°C
App
Tmp
°C
Dew
Point
°C
Rel
Hum
%
Delta-T

°C
Wind Press
QNH
hPa
Press
MSL
hPa
Rain
since
9 am
mm
Dir
 
Spd
km/h
Gust
km/h
Spd
kts
Gust
kts
18/11:30pm 10.5 9.1 9.4 93 0.5 W 7 11 4 6 1018.3 1018.3 0.4
18/11:00pm 10.9 9.6 9.8 93 0.6 W 7 13 4 7 1018.3 1018.3 0.4
18/10:30pm 11.5 9.6 10.4 93 0.6 WNW 11 17 6 9 1018.0 1018.0 0.4
18/10:00pm 11.6 10.1 10.5 93 0.6 W 9 15 5 8 1017.7 1017.7 0.4
18/09:30pm 11.7 9.8 10.6 93 0.6 WNW 11 19 6 10 1017.0 1017.0 0.4
18/09:00pm 11.5 10.0 10.4 93 0.6 WNW 9 13 5 7 1016.4 1016.4 0.4
18/08:30pm 11.5 9.5 10.2 92 0.7 W 11 15 6 8 1016.4 1016.4 0.4
18/08:00pm 11.5 9.1 10.2 92 0.7 W 13 19 7 10 1015.7 1015.7 0.2
18/07:30pm 11.7 9.0 10.4 92 0.7 W 15 22 8 12 1015.7 1015.7 0.2
18/07:00pm 12.7 9.2 10.1 84 1.3 W 19 33 10 18 1015.0 1015.0 0.0
18/06:30pm 13.4 9.3 10.2 81 1.7 W 22 33 12 18 1013.9 1013.9 0.0
18/06:00pm 14.2 10.6 10.4 78 2.0 WSW 20 33 11 18 1013.0 1013.0 0.0
18/05:30pm 14.4 10.7 11.6 83 1.5 SSW 22 28 12 15 1012.1 1012.1 0.0
18/05:00pm 18.4 13.9 10.0 58 4.5 WSW 24 39 13 21 1011.1 1011.1 0.0
18/04:30pm 20.5 16.1 8.8 47 6.2 WNW 22 33 12 18 1010.3 1010.3 0.0
18/04:00pm 20.9 16.8 8.5 45 6.5 WNW 20 32 11 17 1010.0 1010.0 0.0
18/03:30pm 21.2 16.7 8.5 44 6.7 W 22 37 12 20 1009.7 1009.7 0.0
18/03:00pm 21.5 16.9 8.1 42 7.0 NW 22 39 12 21 1009.8 1009.8 0.0
18/02:30pm 20.9 16.6 7.9 43 6.7 WNW 20 39 11 21 1010.2 1010.2 0.0
18/02:00pm 21.4 16.9 8.7 44 6.7 WNW 22 33 12 18 1010.2 1010.2 0.0
18/01:30pm 20.3 16.2 8.6 47 6.1 WNW 20 33 11 18 1010.8 1010.8 0.0
18/01:00pm 19.9 16.4 8.9 49 5.8 NW 17 28 9 15 1011.1 1011.1 0.0
18/12:30pm 19.2 15.4 9.1 52 5.3 WNW 19 32 10 17 1011.9 1011.9 0.0
18/12:00pm 17.7 13.8 8.6 55 4.7 WNW 19 28 10 15 1012.6 1012.6 0.0
18/11:30am 17.6 13.5 8.7 56 4.6 WNW 20 33 11 18 1013.1 1013.1 0.0
18/11:00am 16.9 13.1 9.8 63 3.7 NW 20 30 11 16 1013.5 1013.5 0.0
18/10:30am 16.4 12.8 10.7 69 3.0 WNW 20 32 11 17 1013.7 1013.7 0.0
18/10:00am 15.5 12.2 10.9 74 2.4 WNW 19 35 10 19 1013.8 1013.8 0.0
18/09:30am 15.0 11.8 12.0 82 1.6 WNW 20 30 11 16 1014.0 1014.0 0.0
18/09:00am 14.3 11.5 12.7 90 0.9 W 19 26 10 14 1013.7 1013.7 1.8
18/08:30am 14.2 11.9 13.1 93 0.6 WNW 17 30 9 16 1013.6 1013.6 1.8
18/08:00am 13.4 11.7 12.3 93 0.6 W 13 20 7 11 1013.2 1013.2 1.8
18/07:30am 12.8 12.3 11.9 94 0.5 W 6 7 3 4 1013.1 1013.1 1.8
18/07:00am 12.5 12.2 11.6 94 0.5 NW 4 6 2 3 1012.9 1012.9 1.8
18/06:30am 12.2 11.9 11.3 94 0.5 NW 4 6 2 3 1012.9 1012.9 1.8
18/06:00am 12.1 11.2 11.2 94 0.5 NNW 7 9 4 5 1012.6 1012.6 1.8
18/05:30am 12.2 11.5 11.3 94 0.5 NW 6 11 3 6 1012.5 1012.5 1.8
18/05:00am 12.2 11.9 11.3 94 0.5 WNW 4 7 2 4 1012.2 1012.2 1.8
18/04:30am 12.7 12.5 11.8 94 0.5 NW 4 7 2 4 1012.7 1012.7 1.8
18/04:00am 12.8 12.1 11.9 94 0.5 NNW 7 11 4 6 1012.2 1012.2 1.8
18/03:30am 12.6 11.8 11.7 94 0.5 NW 7 11 4 6 1012.0 1012.0 1.8
18/03:00am 12.7 11.6 11.8 94 0.5 NW 9 13 5 7 1012.2 1012.2 1.8
18/02:30am 12.6 11.8 11.7 94 0.5 NW 7 11 4 6 1012.4 1012.4 1.8
18/02:00am 12.6 12.0 11.7 94 0.5 NW 6 11 3 6 1013.1 1013.1 1.6
18/01:30am 12.7 12.5 11.8 94 0.5 W 4 7 2 4 1013.5 1013.5 1.6
18/01:00am 12.8 13.0 11.9 94 0.5 W 2 4 1 2 1013.6 1013.6 1.6
18/12:30am 12.9 12.8 12.0 94 0.5 W 4 7 2 4 1014.0 1014.0 1.6
18/12:00am 13.0 13.7 12.1 94 0.5 CALM 0 4 0 2 1014.3 1014.3 1.4
 
Date/Time
EST
Tmp

°C
App
Tmp
°C
Dew
Point
°C
Rel
Hum
%
Delta-T

°C
Wind Press
QNH
hPa
Press
MSL
hPa
Rain
since
9 am
mm
Dir
 
Spd
km/h
Gust
km/h
Spd
kts
Gust
kts
17/11:30pm 13.0 12.9 12.1 94 0.5 NW 4 7 2 4 1014.8 1014.8 1.4
17/11:00pm 13.0 12.5 12.1 94 0.5 NW 6 9 3 5 1015.0 1015.0 1.2
17/10:30pm 13.1 12.6 12.2 94 0.5 NNW 6 7 3 4 1015.1 1015.1 1.0
17/10:00pm 13.2 12.7 12.1 93 0.6 N 6 7 3 4 1015.4 1015.4 0.6
17/09:30pm 13.3 12.7 12.2 93 0.6 N 7 11 4 6 1015.5 1015.5 0.4
17/09:00pm 13.6 12.7 12.5 93 0.6 N 9 11 5 6 1015.7 1015.7 0.4
17/08:30pm 13.5 12.9 12.4 93 0.6 N 7 11 4 6 1015.9 1015.9 0.4
17/08:00pm 13.7 12.8 12.6 93 0.6 N 9 15 5 8 1016.1 1016.1 0.4
17/07:30pm 13.6 13.2 12.5 93 0.6 N 6 7 3 4 1016.1 1016.1 0.4
17/07:00pm 13.6 13.1 12.5 93 0.6 NNE 7 13 4 7 1016.7 1016.7 0.4
17/06:30pm 13.6 12.6 12.3 92 0.7 NNE 9 13 5 7 1016.3 1016.3 0.4
17/06:00pm 13.8 12.9 12.5 92 0.7 NNE 9 13 5 7 1016.4 1016.4 0.4
17/05:30pm 13.8 12.9 12.5 92 0.7 NNE 9 13 5 7 1016.4 1016.4 0.4
17/05:00pm 13.8 12.7 12.0 89 1.0 NE 9 15 5 8 1016.5 1016.5 0.4
17/04:30pm 14.1 13.6 12.0 87 1.1 NNE 6 9 3 5 1017.9 1017.9 0.2
17/04:00pm 14.4 13.3 10.6 78 2.0 NNE 7 11 4 6 1018.3 1018.3 0.0
17/03:30pm 14.8 13.1 9.8 72 2.6 ENE 9 15 5 8 1017.6 1017.6 0.0
17/03:00pm 14.9 13.1 9.3 69 2.9 NE 9 15 5 8 1017.9 1017.9 0.0
17/02:30pm 15.1 13.2 9.0 67 3.1 NE 9 17 5 9 1018.3 1018.3 0.0
17/02:00pm 15.0 13.3 8.3 64 3.4 NNE 7 9 4 5 1018.8 1018.8 0.0
17/01:30pm 15.2 13.3 8.9 66 3.2 NNE 9 13 5 7 1019.3 1019.3 0.0
17/01:00pm 15.4 12.6 8.6 64 3.4 NNE 13 17 7 9 1019.7 1019.7 0.0
17/12:30pm 15.3 12.9 8.5 64 3.4 NNE 11 17 6 9 1020.3 1020.3 0.0
17/12:00pm 15.6 12.8 8.4 62 3.6 NE 13 20 7 11 1021.0 1021.0 0.0
17/11:30am 16.3 14.0 9.0 62 3.8 NE 11 19 6 10 1021.9 1021.9 0.0
17/11:00am 15.4 12.8 9.5 68 3.0 NNE 13 19 7 10 1022.5 1022.5 0.0
17/10:30am 15.4 13.7 9.7 69 3.0 NNE 9 13 5 7 1023.1 1023.1 0.0
17/10:00am 14.7 13.3 9.5 71 2.7 NE 7 13 4 7 1023.5 1023.5 0.0
17/09:30am 14.1 13.5 9.1 72 2.5 NNW 2 2 1 1 1023.9 1023.9 0.0
17/09:00am 13.0 12.2 9.6 80 1.7 NNW 4 6 2 3 1024.3 1024.3 0.0
17/08:30am 11.6 11.7 10.3 92 0.7 CALM 0 0 0 0 1024.3 1024.3 0.0
17/08:00am 10.5 10.4 9.3 92 0.6 CALM 0 0 0 0 1024.3 1024.3 0.0
17/07:30am 9.2 8.7 8.0 92 0.6 CALM 0 0 0 0 1023.9 1023.9 0.0
17/07:00am 9.3 8.1 8.1 92 0.6 SW 4 4 2 2 1023.4 1023.4 0.0
17/06:30am 9.2 8.0 8.0 92 0.6 SW 4 6 2 3 1023.7 1023.7 0.0
17/06:00am 9.1 7.9 7.9 92 0.6 SW 4 6 2 3 1023.7 1023.7 0.0
17/05:30am 8.9 7.6 7.5 91 0.7 SW 4 6 2 3 1023.5 1023.5 0.0
17/05:00am 9.5 8.4 8.3 92 0.6 SW 4 6 2 3 1023.5 1023.5 0.0
17/04:30am 9.6 8.5 8.4 92 0.6 SW 4 6 2 3 1023.4 1023.4 0.0
17/04:00am 9.5 8.4 8.3 92 0.6 SW 4 4 2 2 1023.5 1023.5 0.0
17/03:30am 9.5 8.0 8.3 92 0.6 SW 6 6 3 3 1023.4 1023.4 0.0
17/03:00am 9.7 8.9 8.0 89 0.8 NNW 2 2 1 1 1023.6 1023.6 0.0
17/02:30am 10.2 9.4 8.0 86 1.1 NNW 2 4 1 2 1023.9 1023.9 0.0
17/02:00am 10.6 10.1 8.0 84 1.3 CALM 0 0 0 0 1024.1 1024.1 0.0
17/01:30am 10.7 10.1 7.4 80 1.6 CALM 0 2 0 1 1024.6 1024.6 0.0
17/01:00am 10.8 10.2 7.3 79 1.7 CALM 0 0 0 0 1025.2 1025.2 0.0
17/12:30am 11.3 9.8 7.0 75 2.0 WNW 4 4 2 2 1025.5 1025.5 0.0
17/12:00am 11.7 9.9 7.2 74 2.1 WNW 6 6 3 3 1026.0 1026.0 0.0
 
Date/Time
EST
Tmp

°C
App
Tmp
°C
Dew
Point
°C
Rel
Hum
%
Delta-T

°C
Wind Press
QNH
hPa
Press
MSL
hPa
Rain
since
9 am
mm
Dir
 
Spd
km/h
Gust
km/h
Spd
kts
Gust
kts
16/11:30pm 11.9 10.5 7.4 74 2.2 W 4 6 2 3 1026.4 1026.4 0.0
16/11:00pm 11.9 10.1 7.2 73 2.2 WSW 6 7 3 4 1026.5 1026.5 0.0
16/10:30pm 12.5 10.6 7.6 72 2.4 SW 7 9 4 5 1026.4 1026.4 0.0
16/10:00pm 13.3 11.7 8.2 71 2.5 SSW 6 6 3 3 1026.7 1026.7 0.0
16/09:30pm 13.5 12.0 8.6 72 2.5 SW 6 7 3 4 1026.6 1026.6 0.0
16/09:00pm 13.6 12.5 8.4 71 2.6 SW 4 6 2 3 1026.6 1026.6 0.0
16/08:30pm 13.7 12.5 8.1 69 2.8 S 4 6 2 3 1026.6 1026.6 0.0
16/08:00pm 13.5 12.0 8.4 71 2.5 S 6 7 3 4 1026.6 1026.6 0.0
16/07:30pm 13.2 11.6 8.1 71 2.5 SSW 6 7 3 4 1026.4 1026.4 0.0
16/07:00pm 13.3 11.5 8.0 70 2.6 S 7 9 4 5 1025.8 1025.8 0.0
16/06:30pm 13.7 11.6 8.1 69 2.8 SSE 9 13 5 7 1025.5 1025.5 0.0
16/06:00pm 13.9 11.7 7.9 67 3.0 S 9 13 5 7 1025.5 1025.5 0.0

Latest Capital City Observations: Canberra | Sydney | Melbourne | Brisbane | Adelaide | Perth | Hobart | Darwin

Other Formats:

Comma delimited format used in spreadsheet applications
http://www.bom.gov.au/fwo/IDV60901/IDV60901.94857.axf

JavaScript Object Notation format (JSON) in row-major order
http://www.bom.gov.au/fwo/IDV60901/IDV60901.94857.json